[[{"header":{"parameterUnit":"m.s-1","parameterCategory":2,"la1":30.2991,"la2":30.254,"lo1":-89.0895,"lo2":-89.0444,"dy":0.0017,"dx":0.0017,"nx":28,"ny":28,"refTime":"2024-05-30T21:00:00:Z","depth":"0","parameterNumber":2,"parameterNumberName":"U-component_of_CURRENTS"},"data":[0,0,0,0,0,0,0,0,0,0,0,0,0,0,0,0,0,0,0,0,0,0,0,0,0,0,0,0,0,0,0,0,0,0,0,0,0,0,0,0,0,0,0,0,0,0,0,0,0,0,0,0,0,0,0,0,0,0,-0.1865,-0.1865,0,-0.1845,-0.1845,-0.1844,-0.1803,-0.1803,-0.1802,-0.1802,-0.1771,-0.1771,-0.1771,0,0,0,0,0,0,0,0,0,0,0,0,0,-0.1801,-0.1802,-0.1864,-0.1865,-0.1865,-0.1846,-0.1845,-0.1844,-0.1803,-0.1803,-0.1802,-0.1802,-0.1772,-0.1771,-0.177,0,0,0,0,0,0,0,0,0,0,0,0,0,-0.1806,-0.1803,-0.1864,-0.1845,-0.1844,-0.1846,-0.1845,-0.1844,-0.1803,-0.1803,-0.1802,-0.1801,-0.1772,-0.1771,-0.177,-0.1779,0,0,-0.1768,-0.1768,0,0,0,0,0,0,0,0,-0.1806,-0.1808,-0.1848,-0.1847,-0.1845,-0.183,-0.1812,-0.1823,-0.1803,-0.1814,-0.1802,-0.1801,-0.1793,-0.1791,-0.1782,-0.1777,-0.1776,-0.1768,-0.1768,-0.1768,-0.1768,0,0,0,0,0,0,0,-0.1805,-0.1808,-0.1852,-0.1848,-0.1847,-0.1816,-0.1816,-0.1813,-0.1804,-0.1813,-0.1811,-0.1816,-0.1792,-0.1783,-0.1781,-0.1776,-0.1768,-0.1768,-0.1767,-0.1767,-0.1797,-0.1798,0,0,0,0,0,0,-0.1822,-0.1808,-0.1853,-0.1852,-0.1829,-0.1819,-0.1818,-0.1832,-0.1804,-0.18,-0.1817,-0.1815,-0.1784,-0.1782,-0.178,-0.1809,-0.1768,-0.1767,-0.1767,-0.1795,-0.1797,-0.1798,0,0,0,0,0,0,-0.182,-0.1826,-0.1854,-0.1832,-0.1835,-0.1821,-0.1836,-0.1832,-0.1827,-0.1808,-0.1803,-0.1818,-0.1784,-0.1781,-0.1775,-0.1807,-0.1767,-0.1766,-0.1794,-0.1796,-0.1797,-0.1854,0,0,0,0,0,0,-0.1819,-0.1826,-0.1833,-0.1834,-0.1837,-0.187,-0.1837,-0.1832,-0.1834,-0.183,-0.1807,-0.1803,-0.1783,-0.1777,-0.1775,-0.1805,-0.1766,-0.1793,-0.1795,-0.1797,-0.185,-0.1857,-0.1863,0,0,0,0,0,-0.1817,-0.1838,-0.1834,-0.1839,-0.185,-0.1872,-0.187,-0.1854,-0.1835,-0.1844,-0.1816,-0.1804,-0.179,-0.1776,-0.1774,-0.1805,-0.1792,-0.1794,-0.1797,-0.1847,-0.1856,-0.1863,0,0,0,0,0,0,-0.1811,-0.1837,-0.1831,-0.1858,-0.187,-0.1867,-0.187,-0.1862,-0.1847,-0.1836,-0.1809,-0.1804,-0.1812,-0.1802,-0.1788,-0.1821,-0.1793,-0.1796,-0.1833,-0.184,-0.1847,-0.1869,-0.1765,0,0,0,0,0,-0.1816,-0.1838,-0.1856,-0.1875,-0.1883,-0.1876,-0.1879,-0.1875,-0.1866,-0.1858,-0.1844,-0.1829,-0.1822,-0.1824,-0.1814,-0.1832,-0.1814,-0.1854,-0.186,-0.1865,-0.1883,-0.1881,-0.1888,-0.1807,-0.1807,-0.1807,0,0,-0.1814,-0.1834,-0.1843,-0.1875,-0.1875,-0.1906,-0.1875,-0.189,-0.1914,-0.1859,-0.1874,-0.1847,-0.1829,-0.1842,-0.1847,-0.1838,-0.1875,-0.1869,-0.1873,-0.1888,-0.1884,-0.1892,-0.1899,-0.1809,-0.1808,-0.1808,0,0,-0.1836,-0.1845,-0.1874,-0.1897,-0.1919,-0.1922,-0.1933,-0.194,-0.1939,-0.1953,-0.1916,-0.1909,-0.1904,-0.1899,-0.1894,-0.1935,-0.1902,-0.1933,-0.199,-0.1988,-0.1995,-0.2,-0.1967,-0.1969,-0.1944,-0.1944,-0.1944,0,-0.183,-0.1883,-0.1884,-0.1927,-0.1954,-0.1938,-0.1983,-0.1984,-0.1988,-0.1994,-0.197,-0.1955,-0.1939,-0.1955,-0.1966,-0.1952,-0.1929,-0.196,-0.1996,-0.2001,-0.2006,-0.1971,-0.1973,-0.1947,-0.1946,-0.1946,-0.1946,0,-0.1877,-0.1928,-0.1948,-0.2001,-0.2025,-0.2062,-0.2078,-0.2089,-0.2082,-0.2083,-0.209,-0.2054,-0.2049,-0.2044,-0.2017,-0.2048,-0.201,-0.1996,-0.1976,-0.2018,-0.1977,-0.1978,-0.1951,-0.195,-0.1949,-0.1948,0,0,-0.1846,-0.1962,-0.1969,-0.2024,-0.2074,-0.2103,-0.2142,-0.2179,-0.2198,-0.219,-0.2209,-0.2199,-0.2166,-0.216,-0.2121,-0.2121,-0.2125,-0.2079,-0.2077,-0.2044,-0.2093,-0.2021,-0.2014,-0.2111,-0.2112,-0.2113,-0.2042,0,-0.1884,-0.1991,-0.2036,-0.2134,-0.2193,-0.2212,-0.2254,-0.2278,-0.2276,-0.2283,-0.2252,-0.2248,-0.2215,-0.2197,-0.2198,-0.2134,-0.2133,-0.2144,-0.2059,-0.2057,-0.1987,-0.2016,-0.1969,-0.19,-0.2043,-0.2043,-0.2043,0,-0.1906,-0.1991,-0.2091,-0.2226,-0.2249,-0.2295,-0.235,-0.2387,-0.2391,-0.2385,-0.2374,-0.2333,-0.232,-0.228,-0.223,-0.2232,-0.2181,-0.2134,-0.213,-0.205,-0.1988,-0.1886,-0.1895,-0.1907,-0.2044,-0.2044,-0.2044,0,-0.1872,-0.2028,-0.2112,-0.2155,-0.2284,-0.2326,-0.238,-0.2408,-0.2426,-0.2432,-0.2418,-0.2407,-0.2363,-0.233,-0.2228,-0.2233,-0.2149,-0.2143,-0.2033,-0.2026,-0.1966,-0.1951,-0.198,-0.2129,-0.2129,-0.2129,-0.2129,0,-0.1887,-0.1966,-0.2108,-0.2155,-0.2252,-0.2336,-0.2398,-0.2437,-0.2461,-0.2443,-0.2458,-0.241,-0.2373,-0.2304,-0.2244,-0.2125,-0.2164,-0.205,-0.2014,-0.198,-0.1968,-0.1958,-0.1968,-0.2126,-0.2127,-0.2127,-0.2128,0,-0.183,-0.1923,-0.2031,-0.2184,-0.2233,-0.2286,-0.2403,-0.2422,-0.2468,-0.2431,-0.2426,-0.2404,-0.2314,-0.2259,-0.2169,-0.2117,-0.1998,-0.1982,-0.1926,-0.1885,-0.1809,-0.1823,-0.1765,-0.1725,-0.187,-0.1868,-0.1866,0,-0.182,-0.1867,-0.2016,-0.2052,-0.2121,-0.2225,-0.2267,-0.2383,-0.2387,-0.2388,-0.2342,-0.2287,-0.2182,-0.2056,-0.1986,-0.1889,-0.1889,-0.1789,-0.1811,-0.1807,-0.1797,-0.1791,-0.1763,-0.1741,-0.1738,-0.1736,-0.1734,0,-0.1787,-0.1814,-0.1875,-0.196,-0.202,-0.21,-0.2179,-0.2185,-0.2251,-0.223,-0.2138,-0.207,-0.1983,-0.1869,-0.1792,-0.1727,-0.1769,-0.1741,-0.1767,-0.1729,-0.1696,-0.1638,-0.1766,-0.1715,-0.1717,-0.1718,-0.1719,-0.172,-0.1715,-0.173,-0.1777,-0.1842,-0.1903,-0.1918,-0.1912,-0.1968,-0.1948,-0.1873,-0.1903,-0.1807,-0.1798,-0.169,-0.1635,-0.1593,-0.1601,-0.1564,-0.1585,-0.1583,-0.1544,-0.1614,-0.1506,-0.1507,-0.1507,-0.1508,-0.1508,0,-0.1609,-0.1625,-0.1669,-0.1709,-0.1697,-0.1787,-0.1797,-0.1743,-0.1646,-0.1664,-0.1589,-0.1595,-0.1537,-0.1564,-0.155,-0.1485,-0.1457,-0.1446,-0.1465,-0.1447,-0.1535,-0.1532,-0.1389,-0.1389,-0.1389,-0.1389,-0.1389,-0.1389,-0.1543,-0.1519,-0.1541,-0.1483,-0.1502,-0.1427,-0.1384,-0.1328,-0.1329,-0.1269,-0.1309,-0.1378,-0.1463,-0.1595,-0.1557,-0.148,-0.1456,-0.1374,-0.1388,-0.1507,-0.1522,-0.1536,-0.1538,-0.1399,-0.1399,-0.1273,-0.1273,-0.1272]},{"header":{"parameterUnit":"m.s-1","parameterCategory":2,"la1":30.2991,"la2":30.254,"lo1":-89.0895,"lo2":-89.0444,"dy":0.0017,"dx":0.0017,"nx":28,"ny":28,"refTime":"2024-05-30T21:00:00:Z","depth":"0","parameterNumber":3,"parameterNumberName":"V-component_of_CURRENTS"},"data":[0,0,0,0,0,0,0,0,0,0,0,0,0,0,0,0,0,0,0,0,0,0,0,0,0,0,0,0,0,0,0,0,0,0,0,0,0,0,0,0,0,0,0,0,0,0,0,0,0,0,0,0,0,0,0,0,0,0,-0.0173,-0.0171,0,-0.0045,-0.0043,-0.0042,0.0004,0.0003,0.0003,0.0002,0.0102,0.0105,0.0108,0,0,0,0,0,0,0,0,0,0,0,0,0,-0.0224,-0.0225,-0.0173,-0.0171,-0.017,-0.0045,-0.0043,-0.0042,0.0004,0.0003,0.0003,0.0002,0.0101,0.0105,0.0109,0,0,0,0,0,0,0,0,0,0,0,0,0,-0.0161,-0.0225,-0.0173,-0.0132,-0.0127,-0.0045,-0.0043,-0.0041,0.0004,0.0003,0.0003,0.0002,0.01,0.0105,0.0109,0.015,0,0,0.0123,0.0125,0,0,0,0,0,0,0,0,-0.0165,-0.0159,-0.0139,-0.0134,-0.0129,-0.0037,-0.0024,0.0022,0.0004,-0.0046,0.0002,0.0002,0.0054,0.0062,0.0087,0.0154,0.0159,0.0123,0.0126,0.0128,0.0129,0,0,0,0,0,0,0,-0.0169,-0.0163,-0.0123,-0.0138,-0.0131,-0.0066,-0.0059,-0.0015,0.0005,-0.0042,-0.0038,-0.0023,0.0057,0.0083,0.009,0.016,0.0123,0.0127,0.013,0.0132,0.0236,0.0236,0,0,0,0,0,0,-0.0191,-0.0169,-0.0127,-0.0119,-0.0148,-0.0065,-0.0058,-0.0066,0.0005,0.0016,-0.0022,-0.0021,0.0075,0.0085,0.0094,0.0128,0.0128,0.0132,0.0135,0.0236,0.0236,0.0236,0,0,0,0,0,0,-0.0193,-0.019,-0.0132,-0.0138,-0.0127,-0.0065,-0.0074,-0.0063,-0.0037,0.002,0.003,-0.0008,0.0075,0.0087,0.0136,0.0133,0.0134,0.0139,0.0236,0.0236,0.0236,0.0208,0,0,0,0,0,0,-0.0196,-0.0192,-0.0201,-0.0141,-0.0127,-0.0084,-0.0073,-0.006,-0.0026,-0.0024,0.0036,0.0045,0.0076,0.0129,0.0141,0.0139,0.0142,0.0236,0.0236,0.0236,0.0209,0.0207,0.0205,0,0,0,0,0,-0.0198,-0.0205,-0.0203,-0.0197,-0.0144,-0.0084,-0.007,-0.0027,-0.0025,-0.0008,0.003,0.0043,0.0137,0.0134,0.0147,0.0146,0.0236,0.0236,0.0236,0.021,0.0207,0.0205,0,0,0,0,0,0,-0.0216,-0.0199,-0.0195,-0.0194,-0.0145,-0.0076,-0.0054,-0.0029,0.0017,0.0016,0.006,0.0072,0.011,0.0134,0.013,0.0174,0.0182,0.0185,0.0158,0.0156,0.0154,0.0139,0.0146,0,0,0,0,0,-0.023,-0.0241,-0.0196,-0.019,-0.0174,-0.0117,-0.0087,-0.0058,-0.0009,0.001,0.0052,0.0089,0.0122,0.0143,0.0181,0.0217,0.0229,0.0219,0.0217,0.0216,0.0211,0.0217,0.0215,0.0236,0.0236,0.0236,0,0,-0.0232,-0.0224,-0.0227,-0.0196,-0.0159,-0.0124,-0.0101,-0.0057,-0.0027,0.0014,0.0062,0.0091,0.0131,0.0167,0.0184,0.0187,0.022,0.0216,0.0214,0.021,0.0217,0.0214,0.0213,0.0236,0.0236,0.0236,0,0,-0.0233,-0.0239,-0.0245,-0.0211,-0.0164,-0.0126,-0.0118,-0.0053,-0.0029,0.0026,0.005,0.0075,0.0144,0.0162,0.0181,0.0193,0.0212,0.0201,0.0182,0.0188,0.0186,0.0185,0.0213,0.0214,0.0198,0.0198,0.0198,0,-0.0234,-0.0243,-0.0227,-0.0212,-0.0183,-0.0133,-0.0108,-0.0068,0.0007,0.002,0.0035,0.0106,0.0138,0.0163,0.0165,0.0188,0.0203,0.0187,0.0185,0.0183,0.0182,0.0211,0.0213,0.0197,0.0197,0.0197,0.0197,0,-0.0234,-0.0234,-0.0227,-0.0207,-0.0169,-0.0138,-0.0085,-0.0052,-0.002,0.0014,0.0048,0.0093,0.0126,0.0137,0.0161,0.0164,0.0182,0.0182,0.0187,0.0178,0.021,0.0212,0.0195,0.0195,0.0196,0.0196,0,0,-0.0264,-0.0238,-0.0239,-0.0232,-0.0169,-0.0141,-0.0096,-0.005,-0.0038,0.0019,0.0035,0.0083,0.0091,0.0111,0.0133,0.014,0.0151,0.0156,0.0156,0.0179,0.0181,0.0208,0.0213,0.0148,0.0148,0.0148,0.0211,0,-0.027,-0.0265,-0.0237,-0.0209,-0.0199,-0.0142,-0.0108,-0.0062,-0.0022,0.0008,0.0036,0.0064,0.0086,0.0094,0.0104,0.0146,0.0152,0.0135,0.019,0.0192,0.0213,0.0215,0.0236,0.0295,0.0214,0.0214,0.0214,0,-0.0293,-0.0285,-0.0278,-0.0239,-0.0228,-0.0198,-0.0154,-0.0113,-0.0062,-0.0036,-0.0009,0.0025,0.0057,0.0065,0.0123,0.0112,0.0138,0.0164,0.0167,0.0201,0.0222,0.0288,0.0302,0.04,0.0218,0.0217,0.0217,0,-0.0358,-0.0318,-0.0324,-0.0307,-0.0248,-0.0235,-0.0196,-0.0141,-0.012,-0.0071,-0.0053,-0.0006,0.0021,0.0058,0.0132,0.0123,0.0196,0.019,0.0238,0.0241,0.0274,0.028,0.0383,0.0204,0.0204,0.0204,0.0204,0,-0.04,-0.0401,-0.036,-0.0364,-0.0361,-0.0293,-0.0282,-0.0239,-0.0185,-0.0165,-0.0092,-0.0066,0.0017,0.0079,0.0128,0.0208,0.0195,0.0237,0.0254,0.0268,0.0272,0.0371,0.0412,0.0206,0.0206,0.0205,0.0205,0,-0.0487,-0.0459,-0.0464,-0.0417,-0.0402,-0.0405,-0.0341,-0.0327,-0.0263,-0.023,-0.0215,-0.011,-0.0018,0.0076,0.0158,0.0209,0.0335,0.0295,0.0321,0.0339,0.0465,0.0503,0.0613,0.0658,0.0357,0.0358,0.0359,0,-0.0534,-0.0552,-0.053,-0.0532,-0.0515,-0.0495,-0.0475,-0.0394,-0.0366,-0.0258,-0.0246,-0.0139,-0.0065,0.0097,0.0214,0.0325,0.0379,0.04,0.0374,0.0482,0.0536,0.056,0.0592,0.0418,0.042,0.0421,0.0422,0,-0.0615,-0.0618,-0.0622,-0.0638,-0.0626,-0.0599,-0.0556,-0.0543,-0.0435,-0.0388,-0.0299,-0.0229,-0.0044,0.0118,0.0285,0.0341,0.0483,0.0423,0.0522,0.0584,0.0628,0.0677,0.0386,0.0431,0.043,0.0429,0.0428,0.0428,-0.0676,-0.0708,-0.0719,-0.0728,-0.0716,-0.0685,-0.0657,-0.0598,-0.0548,-0.0435,-0.036,-0.0218,0.0045,0.0288,0.0372,0.0586,0.0549,0.0631,0.0668,0.0683,0.0726,0.0465,0.0531,0.0531,0.053,0.053,0.053,0,-0.0737,-0.0763,-0.0792,-0.0788,-0.0782,-0.075,-0.0691,-0.0637,-0.0571,-0.0463,-0.0366,-0.0057,0.0192,0.0436,0.0744,0.0845,0.085,0.0888,0.0932,0.0949,0.0714,0.0716,0.0839,0.0839,0.0838,0.0838,0.0838,0.0838,-0.0768,-0.0822,-0.0835,-0.0839,-0.0825,-0.0777,-0.0735,-0.0652,-0.0555,-0.0359,-0.0176,-0.0038,0.0319,0.0847,0.113,0.1125,0.1212,0.1186,0.1235,0.1084,0.1062,0.1042,0.1055,0.1247,0.1247,0.1457,0.1459,0.1461]}],[{"header":{"parameterUnit":"m.s-1","parameterCategory":2,"la1":30.2991,"la2":30.254,"lo1":-89.0895,"lo2":-89.0444,"dy":0.0017,"dx":0.0017,"nx":28,"ny":28,"refTime":"2024-05-30T21:00:00:Z","depth":"2","parameterNumber":2,"parameterNumberName":"U-component_of_CURRENTS"},"data":[0,0,0,0,0,0,0,0,0,0,0,0,0,0,0,0,0,0,0,0,0,0,0,0,0,0,0,0,0,0,0,0,0,0,0,0,0,0,0,0,0,0,0,0,0,0,0,0,0,0,0,0,0,0,0,0,0,0,-0.1686,-0.1686,0,-0.1673,-0.1673,-0.1672,-0.1626,-0.1626,-0.1626,-0.1625,-0.1578,-0.1577,-0.1576,0,0,0,0,0,0,0,0,0,0,0,0,0,-0.1591,-0.1593,-0.1686,-0.1687,-0.1687,-0.1674,-0.1673,-0.1672,-0.1626,-0.1626,-0.1625,-0.1625,-0.1578,-0.1577,-0.1576,0,0,0,0,0,0,0,0,0,0,0,0,0,-0.1605,-0.1594,-0.1686,-0.1668,-0.1667,-0.1674,-0.1673,-0.1672,-0.1627,-0.1626,-0.1625,-0.1625,-0.1578,-0.1577,-0.1576,-0.1579,0,0,-0.1572,-0.1571,0,0,0,0,0,0,0,0,-0.1604,-0.1607,-0.167,-0.1669,-0.1668,-0.1657,-0.1622,-0.1642,-0.1627,-0.1634,-0.1625,-0.1624,-0.1606,-0.1602,-0.1592,-0.1577,-0.1575,-0.1571,-0.1571,-0.157,-0.157,0,0,0,0,0,0,0,-0.1603,-0.1607,-0.1674,-0.1671,-0.1669,-0.1634,-0.1635,-0.1625,-0.1618,-0.1634,-0.1632,-0.1642,-0.1604,-0.1593,-0.159,-0.1575,-0.1572,-0.157,-0.157,-0.1569,-0.1564,-0.1564,0,0,0,0,0,0,-0.1624,-0.1607,-0.1675,-0.1674,-0.1642,-0.1637,-0.1638,-0.1655,-0.1618,-0.1615,-0.1643,-0.164,-0.1596,-0.1592,-0.1589,-0.1609,-0.157,-0.1569,-0.1568,-0.1563,-0.1564,-0.1565,0,0,0,0,0,0,-0.1622,-0.1631,-0.1675,-0.1645,-0.1649,-0.164,-0.166,-0.1656,-0.1658,-0.1627,-0.1621,-0.1652,-0.1595,-0.1591,-0.1574,-0.1606,-0.1568,-0.1567,-0.1562,-0.1563,-0.1564,-0.1639,0,0,0,0,0,0,-0.162,-0.163,-0.1645,-0.1647,-0.1652,-0.1688,-0.1661,-0.1656,-0.1668,-0.1664,-0.1633,-0.1627,-0.1594,-0.1577,-0.1573,-0.1604,-0.1566,-0.1562,-0.1563,-0.1564,-0.1636,-0.1642,-0.1648,0,0,0,0,0,-0.1616,-0.1643,-0.1646,-0.1654,-0.1675,-0.1689,-0.1687,-0.1673,-0.1669,-0.1672,-0.1641,-0.1628,-0.1583,-0.1576,-0.1571,-0.1603,-0.1561,-0.1562,-0.1564,-0.1633,-0.1641,-0.1648,0,0,0,0,0,0,-0.1598,-0.1642,-0.1645,-0.168,-0.1689,-0.1684,-0.1689,-0.1689,-0.1669,-0.1662,-0.163,-0.1622,-0.1623,-0.16,-0.1593,-0.1604,-0.1573,-0.1574,-0.1627,-0.1635,-0.1641,-0.1678,-0.1565,0,0,0,0,0,-0.1608,-0.1645,-0.1667,-0.1693,-0.1702,-0.17,-0.1705,-0.17,-0.1689,-0.168,-0.1663,-0.164,-0.1626,-0.1618,-0.1599,-0.1604,-0.1588,-0.1622,-0.1629,-0.1634,-0.1661,-0.1666,-0.1676,-0.157,-0.157,-0.157,0,0,-0.1609,-0.1638,-0.1657,-0.1692,-0.1694,-0.1716,-0.1699,-0.1714,-0.1734,-0.1679,-0.169,-0.1663,-0.1631,-0.163,-0.1631,-0.1615,-0.1648,-0.1636,-0.1641,-0.1665,-0.1669,-0.168,-0.1689,-0.1571,-0.157,-0.157,0,0,-0.1629,-0.1654,-0.1689,-0.171,-0.1735,-0.173,-0.1745,-0.1753,-0.1756,-0.1768,-0.173,-0.1726,-0.1708,-0.1689,-0.1679,-0.1713,-0.1682,-0.1705,-0.1767,-0.1772,-0.1781,-0.1789,-0.1751,-0.1755,-0.1707,-0.1707,-0.1707,0,-0.1625,-0.1682,-0.1696,-0.1736,-0.1757,-0.1746,-0.1778,-0.1783,-0.1784,-0.18,-0.1783,-0.1777,-0.1745,-0.1756,-0.1758,-0.1732,-0.1711,-0.1741,-0.1782,-0.179,-0.1797,-0.1756,-0.176,-0.1711,-0.171,-0.171,-0.1709,0,-0.1669,-0.1722,-0.1743,-0.1792,-0.1805,-0.1834,-0.1847,-0.1862,-0.1869,-0.1881,-0.1908,-0.1868,-0.1869,-0.1855,-0.1816,-0.185,-0.1808,-0.1791,-0.1768,-0.1813,-0.1765,-0.1768,-0.1716,-0.1715,-0.1713,-0.1713,0,0,-0.1646,-0.1757,-0.1764,-0.1818,-0.1845,-0.1869,-0.1894,-0.1928,-0.1975,-0.1975,-0.2021,-0.2006,-0.1999,-0.1986,-0.1941,-0.1942,-0.1951,-0.1891,-0.189,-0.1862,-0.193,-0.1852,-0.1846,-0.1941,-0.1942,-0.1944,-0.1865,0,-0.1675,-0.1766,-0.1809,-0.1892,-0.1934,-0.1955,-0.1996,-0.2023,-0.2037,-0.2072,-0.2059,-0.2075,-0.2045,-0.2038,-0.2043,-0.1966,-0.1967,-0.1972,-0.1884,-0.1882,-0.1815,-0.1851,-0.1731,-0.1648,-0.1867,-0.1868,-0.1868,0,-0.1693,-0.1762,-0.1837,-0.1977,-0.2,-0.2042,-0.2105,-0.2148,-0.2181,-0.2196,-0.2212,-0.2188,-0.2176,-0.2142,-0.2094,-0.2095,-0.2036,-0.1983,-0.1979,-0.1892,-0.181,-0.1644,-0.1644,-0.1872,-0.1871,-0.1871,-0.1871,0,-0.1649,-0.1791,-0.1853,-0.1893,-0.2018,-0.2069,-0.213,-0.2179,-0.2206,-0.2254,-0.2249,-0.2273,-0.2231,-0.2209,-0.2092,-0.2098,-0.2016,-0.2006,-0.1887,-0.1878,-0.1754,-0.1733,-0.2003,-0.2004,-0.2004,-0.2004,-0.2004,0,-0.1654,-0.1729,-0.1854,-0.1899,-0.1997,-0.2085,-0.2171,-0.2234,-0.2275,-0.2278,-0.2308,-0.2269,-0.2247,-0.2177,-0.2115,-0.1992,-0.2038,-0.1913,-0.1869,-0.1771,-0.1752,-0.1937,-0.1931,-0.2001,-0.2002,-0.2002,-0.2003,0,-0.1599,-0.1677,-0.1776,-0.1926,-0.1975,-0.2037,-0.2164,-0.2208,-0.2272,-0.2253,-0.2249,-0.2239,-0.2159,-0.2112,-0.2028,-0.1981,-0.1897,-0.1843,-0.1706,-0.165,-0.1751,-0.175,-0.1731,-0.1728,-0.1725,-0.1723,-0.1721,0,-0.159,-0.1626,-0.1759,-0.1795,-0.1869,-0.1978,-0.203,-0.2158,-0.2167,-0.2197,-0.2147,-0.2102,-0.2009,-0.1885,-0.1819,-0.1726,-0.1779,-0.1564,-0.1581,-0.1773,-0.1732,-0.1734,-0.1735,-0.1422,-0.1418,-0.1415,-0.1412,0,-0.1561,-0.1586,-0.1641,-0.1708,-0.1772,-0.1859,-0.1944,-0.1934,-0.2029,-0.2008,-0.1934,-0.1878,-0.1792,-0.1646,-0.1569,-0.15,-0.1584,-0.1492,-0.1728,-0.1519,-0.1479,-0.1439,-0.1452,-0.1382,-0.1385,-0.1387,-0.1389,-0.139,-0.1502,-0.1511,-0.1547,-0.1607,-0.1668,-0.1694,-0.1696,-0.1744,-0.1723,-0.1656,-0.1688,-0.1579,-0.1569,-0.1386,-0.1303,-0.1265,-0.1368,-0.1317,-0.1329,-0.1344,-0.1332,-0.1291,-0.1154,-0.1155,-0.1157,-0.1158,-0.1159,0,-0.14,-0.1416,-0.1458,-0.1491,-0.1488,-0.1581,-0.1591,-0.1538,-0.1437,-0.1434,-0.1366,-0.1208,-0.1126,-0.113,-0.1035,-0.1018,-0.1028,-0.097,-0.0992,-0.1021,-0.1047,-0.1023,-0.076,-0.0759,-0.0758,-0.0757,0,0,-0.1335,-0.1307,-0.1326,-0.1281,-0.1312,-0.1257,-0.122,-0.1158,-0.1131,-0.102,-0.0982,-0.1047,-0.1087,-0.092,-0.0886,-0.0811,-0.0906,-0.077,-0.1087,-0.114,-0.1165,-0.1241,-0.1234,0,0,0,0,0]},{"header":{"parameterUnit":"m.s-1","parameterCategory":2,"la1":30.2991,"la2":30.254,"lo1":-89.0895,"lo2":-89.0444,"dy":0.0017,"dx":0.0017,"nx":28,"ny":28,"refTime":"2024-05-30T21:00:00:Z","depth":"2","parameterNumber":3,"parameterNumberName":"V-component_of_CURRENTS"},"data":[0,0,0,0,0,0,0,0,0,0,0,0,0,0,0,0,0,0,0,0,0,0,0,0,0,0,0,0,0,0,0,0,0,0,0,0,0,0,0,0,0,0,0,0,0,0,0,0,0,0,0,0,0,0,0,0,0,0,-0.0241,-0.0239,0,-0.0122,-0.0121,-0.0119,-0.008,-0.008,-0.0081,-0.0081,0.0015,0.0017,0.002,0,0,0,0,0,0,0,0,0,0,0,0,0,-0.0281,-0.0282,-0.0241,-0.0239,-0.0238,-0.0122,-0.0121,-0.0119,-0.008,-0.008,-0.0081,-0.0081,0.0014,0.0017,0.0021,0,0,0,0,0,0,0,0,0,0,0,0,0,-0.0225,-0.0282,-0.0241,-0.0204,-0.0199,-0.0122,-0.012,-0.0119,-0.008,-0.008,-0.0081,-0.0082,0.0012,0.0017,0.0021,0.0061,0,0,0.0035,0.0037,0,0,0,0,0,0,0,0,-0.0228,-0.0223,-0.0211,-0.0206,-0.0201,-0.0116,-0.0099,-0.0059,-0.008,-0.0126,-0.0081,-0.0082,-0.003,-0.0022,0.0001,0.0066,0.007,0.0035,0.0038,0.004,0.0041,0,0,0,0,0,0,0,-0.0232,-0.0227,-0.0195,-0.0209,-0.0203,-0.014,-0.0135,-0.0091,-0.0077,-0.0122,-0.0119,-0.0104,-0.0028,-0.0004,0.0003,0.0071,0.0035,0.0039,0.0042,0.0043,0.0144,0.0144,0,0,0,0,0,0,-0.0253,-0.0232,-0.0198,-0.0191,-0.0215,-0.014,-0.0133,-0.0143,-0.0077,-0.0067,-0.0103,-0.0102,-0.0011,-0.0002,0.0007,0.0042,0.004,0.0044,0.0046,0.0144,0.0144,0.0144,0,0,0,0,0,0,-0.0254,-0.0252,-0.0203,-0.0206,-0.0196,-0.0139,-0.015,-0.014,-0.0115,-0.0062,-0.0053,-0.0088,-0.0011,0.0,0.0048,0.0046,0.0046,0.005,0.0144,0.0144,0.0144,0.0123,0,0,0,0,0,0,-0.0257,-0.0254,-0.0262,-0.0209,-0.0196,-0.0159,-0.0149,-0.0137,-0.0104,-0.0102,-0.0046,-0.0037,-0.0011,0.0041,0.0052,0.0053,0.0053,0.0144,0.0144,0.0144,0.0124,0.0123,0.0122,0,0,0,0,0,-0.0259,-0.0266,-0.0264,-0.0259,-0.0213,-0.0159,-0.0146,-0.0108,-0.0103,-0.0088,-0.0052,-0.0039,0.0048,0.0045,0.0058,0.006,0.0144,0.0144,0.0144,0.0125,0.0123,0.0122,0,0,0,0,0,0,-0.0273,-0.0261,-0.0258,-0.0258,-0.0214,-0.0152,-0.0131,-0.0106,-0.0064,-0.0064,-0.0023,-0.0011,0.0026,0.0048,0.0043,0.0086,0.0092,0.0095,0.0073,0.0072,0.007,0.0058,0.0057,0,0,0,0,0,-0.0285,-0.0298,-0.0259,-0.0254,-0.0239,-0.0186,-0.0159,-0.0132,-0.0087,-0.0069,-0.0029,0.0006,0.0038,0.0058,0.0094,0.0129,0.0139,0.0132,0.0131,0.013,0.0127,0.0134,0.0133,0.0144,0.0144,0.0144,0,0,-0.0285,-0.0281,-0.0285,-0.0259,-0.0225,-0.0194,-0.0172,-0.0131,-0.0103,-0.0065,-0.0017,0.0011,0.0047,0.0082,0.0099,0.0099,0.0135,0.013,0.0128,0.0126,0.0134,0.0132,0.0131,0.0144,0.0144,0.0144,0,0,-0.0287,-0.0293,-0.0302,-0.0272,-0.0229,-0.0194,-0.0186,-0.0127,-0.0102,-0.0048,-0.0026,-0.0,0.0066,0.0082,0.0099,0.0114,0.013,0.0121,0.0106,0.0113,0.0111,0.0111,0.0134,0.0135,0.0117,0.0117,0.0117,0,-0.0286,-0.03,-0.0286,-0.0274,-0.0249,-0.02,-0.0181,-0.014,-0.0069,-0.0054,-0.0039,0.0033,0.0063,0.0088,0.009,0.011,0.0123,0.0109,0.011,0.011,0.0109,0.0133,0.0135,0.0116,0.0116,0.0116,0.0116,0,-0.029,-0.0294,-0.0288,-0.0274,-0.024,-0.0213,-0.0161,-0.0127,-0.0093,-0.0057,-0.0018,0.0025,0.0059,0.0069,0.009,0.0096,0.011,0.011,0.0112,0.0106,0.0133,0.0135,0.0114,0.0115,0.0115,0.0115,0,0,-0.0316,-0.03,-0.0301,-0.0296,-0.0242,-0.0216,-0.0172,-0.0126,-0.0108,-0.005,-0.0029,0.002,0.0032,0.005,0.0071,0.0078,0.009,0.009,0.0091,0.011,0.0118,0.0143,0.0148,0.0088,0.0088,0.0088,0.0142,0,-0.0324,-0.0329,-0.0305,-0.0283,-0.0278,-0.0222,-0.0186,-0.0138,-0.0094,-0.0058,-0.0026,0.0006,0.0028,0.0038,0.0049,0.0087,0.0093,0.0077,0.0123,0.0125,0.0145,0.015,0.0142,0.019,0.0144,0.0144,0.0145,0,-0.0349,-0.0348,-0.0349,-0.0313,-0.0303,-0.0275,-0.0226,-0.0183,-0.0125,-0.0095,-0.0063,-0.0027,0.0006,0.0014,0.007,0.006,0.0082,0.0106,0.0108,0.0138,0.0153,0.0186,0.0196,0.0148,0.0148,0.0148,0.0148,0,-0.0409,-0.038,-0.0391,-0.0377,-0.0324,-0.0308,-0.0268,-0.0207,-0.0184,-0.0125,-0.0107,-0.0054,-0.0028,0.001,0.0077,0.007,0.0137,0.0131,0.0173,0.0176,0.0182,0.0186,0.0147,0.0147,0.0147,0.0147,0.0146,0,-0.0451,-0.0454,-0.0423,-0.043,-0.0425,-0.036,-0.0344,-0.0296,-0.024,-0.0217,-0.0141,-0.0115,-0.0032,0.0026,0.0074,0.0147,0.0136,0.0175,0.0189,0.0177,0.0179,0.0149,0.0148,0.0149,0.0148,0.0148,0.0147,0,-0.053,-0.051,-0.0519,-0.0478,-0.0464,-0.0463,-0.0404,-0.0384,-0.0318,-0.0284,-0.0269,-0.0165,-0.0075,0.0017,0.0095,0.0145,0.0207,0.0225,0.022,0.0231,0.0243,0.0241,0.028,0.0281,0.0282,0.0283,0.0284,0,-0.0575,-0.0595,-0.0582,-0.0586,-0.0571,-0.0551,-0.053,-0.0449,-0.0421,-0.0315,-0.0304,-0.0199,-0.0122,0.0031,0.014,0.0247,0.0229,0.0291,0.0267,0.0246,0.0255,0.0251,0.0248,0.0274,0.0275,0.0276,0.0276,0,-0.0652,-0.0656,-0.0664,-0.0685,-0.0674,-0.0651,-0.0609,-0.0597,-0.0488,-0.044,-0.0348,-0.0275,-0.0103,0.0039,0.0193,0.0242,0.0281,0.0304,0.0281,0.0241,0.0245,0.0252,0.0248,0.028,0.028,0.028,0.0279,0.0279,-0.0709,-0.0741,-0.0757,-0.0768,-0.0759,-0.0728,-0.0699,-0.0639,-0.0585,-0.0462,-0.0394,-0.0252,-0.0104,0.0124,0.0228,0.0327,0.0312,0.0333,0.033,0.0327,0.0315,0.032,0.0369,0.037,0.037,0.037,0.037,0,-0.0766,-0.0793,-0.0825,-0.0823,-0.0816,-0.0789,-0.0729,-0.0668,-0.059,-0.0481,-0.0373,-0.0197,-0.0026,0.0119,0.0285,0.0377,0.0358,0.0383,0.0346,0.0341,0.0337,0.0324,0.0382,0.0383,0.0383,0.0383,0,0,-0.0794,-0.0847,-0.0861,-0.0865,-0.0854,-0.0804,-0.0758,-0.0664,-0.0567,-0.0443,-0.0332,-0.0184,-0.0011,0.0112,0.0232,0.0316,0.0297,0.0314,0.0295,0.0232,0.0227,0.0301,0.0276,0,0,0,0,0]}],[{"header":{"parameterUnit":"m.s-1","parameterCategory":2,"la1":30.2991,"la2":30.254,"lo1":-89.0895,"lo2":-89.0444,"dy":0.0017,"dx":0.0017,"nx":28,"ny":28,"refTime":"2024-05-30T21:00:00:Z","depth":"4","parameterNumber":2,"parameterNumberName":"U-component_of_CURRENTS"},"data":[0,0,0,0,0,0,0,0,0,0,0,0,0,0,0,0,0,0,0,0,0,0,0,0,0,0,0,0,0,0,0,0,0,0,0,0,0,0,0,0,0,0,0,0,0,0,0,0,0,0,0,0,0,0,0,0,0,0,-0.0272,-0.0272,0,-0.0317,-0.0318,-0.0319,-0.0369,-0.0369,-0.0369,-0.037,-0.0426,-0.0427,-0.0428,0,0,0,0,0,0,0,0,0,0,0,0,0,-0.0372,-0.0369,-0.0272,-0.0272,-0.0272,-0.0317,-0.0318,-0.0319,-0.0369,-0.0369,-0.0369,-0.037,-0.0426,-0.0427,-0.0428,0,0,0,0,0,0,0,0,0,0,0,0,0,-0.0367,-0.0368,-0.0272,-0.03,-0.0302,-0.0317,-0.0318,-0.0319,-0.0368,-0.0369,-0.037,-0.037,-0.0425,-0.0427,-0.0429,-0.0429,0,0,-0.0434,-0.0435,0,0,0,0,0,0,0,0,-0.0367,-0.0364,-0.0295,-0.0298,-0.0301,-0.0334,-0.0373,-0.0355,-0.0368,-0.0348,-0.037,-0.037,-0.0393,-0.0398,-0.0411,-0.0431,-0.0434,-0.0434,-0.0435,-0.0436,-0.0436,0,0,0,0,0,0,0,-0.0367,-0.0363,-0.0294,-0.0295,-0.0298,-0.0358,-0.0357,-0.0371,-0.037,-0.035,-0.0352,-0.035,-0.0395,-0.0409,-0.0412,-0.0435,-0.0434,-0.0436,-0.0437,-0.0437,-0.0532,-0.0534,0,0,0,0,0,0,-0.0345,-0.0362,-0.0293,-0.0295,-0.0331,-0.0355,-0.0354,-0.0326,-0.037,-0.0376,-0.035,-0.0352,-0.0406,-0.041,-0.0414,-0.0478,-0.0436,-0.0438,-0.0439,-0.0531,-0.0533,-0.0534,0,0,0,0,0,0,-0.0346,-0.0337,-0.0291,-0.0329,-0.0326,-0.0351,-0.032,-0.0327,-0.0362,-0.0369,-0.0377,-0.038,-0.0406,-0.0412,-0.0455,-0.0478,-0.0438,-0.044,-0.0529,-0.0531,-0.0533,-0.0565,0,0,0,0,0,0,-0.0348,-0.0336,-0.0313,-0.0325,-0.0323,-0.0312,-0.032,-0.0327,-0.0356,-0.0361,-0.0397,-0.0402,-0.0407,-0.0453,-0.0457,-0.0479,-0.0441,-0.0527,-0.053,-0.0533,-0.0562,-0.0568,-0.0573,0,0,0,0,0,-0.0351,-0.0321,-0.0311,-0.0303,-0.0287,-0.0312,-0.0317,-0.0341,-0.0358,-0.0376,-0.0408,-0.0402,-0.0473,-0.0455,-0.046,-0.0484,-0.0526,-0.0529,-0.0532,-0.056,-0.0567,-0.0573,0,0,0,0,0,0,-0.0388,-0.0323,-0.0313,-0.0273,-0.0294,-0.0319,-0.0331,-0.0353,-0.0394,-0.0406,-0.0421,-0.0428,-0.0471,-0.0477,-0.0457,-0.0521,-0.0498,-0.0503,-0.0517,-0.0524,-0.053,-0.0554,-0.0443,0,0,0,0,0,-0.0371,-0.0303,-0.0304,-0.0274,-0.0285,-0.0313,-0.0327,-0.0351,-0.0383,-0.0403,-0.0426,-0.0456,-0.0484,-0.0505,-0.0524,-0.0561,-0.0572,-0.058,-0.0586,-0.059,-0.0615,-0.0667,-0.068,-0.0545,-0.0545,-0.0545,0,0,-0.0398,-0.0331,-0.0313,-0.0273,-0.029,-0.032,-0.0325,-0.0357,-0.0396,-0.0401,-0.046,-0.0473,-0.0498,-0.0539,-0.0559,-0.0551,-0.0626,-0.0595,-0.0598,-0.0621,-0.0672,-0.0685,-0.0697,-0.0547,-0.0547,-0.0547,0,0,-0.0388,-0.0343,-0.0293,-0.0305,-0.0303,-0.0331,-0.0346,-0.0386,-0.0418,-0.0466,-0.0484,-0.0527,-0.0556,-0.0593,-0.0611,-0.0663,-0.0649,-0.0655,-0.0709,-0.0759,-0.0771,-0.0781,-0.0773,-0.0783,-0.0663,-0.0663,-0.0663,0,-0.0417,-0.0341,-0.0303,-0.0277,-0.0302,-0.0341,-0.0373,-0.0412,-0.0465,-0.0504,-0.049,-0.0576,-0.059,-0.0668,-0.0682,-0.0678,-0.068,-0.0677,-0.0766,-0.0777,-0.0788,-0.0778,-0.0788,-0.0665,-0.0665,-0.0665,-0.0665,0,-0.0411,-0.0347,-0.0337,-0.0299,-0.0335,-0.0366,-0.0423,-0.047,-0.0509,-0.0552,-0.0628,-0.0652,-0.0715,-0.0713,-0.0712,-0.0795,-0.076,-0.076,-0.0748,-0.0803,-0.0788,-0.0798,-0.0668,-0.0667,-0.0667,-0.0666,0,0,-0.0466,-0.0346,-0.0346,-0.0314,-0.0353,-0.0383,-0.0462,-0.0543,-0.0605,-0.0654,-0.0733,-0.0783,-0.0811,-0.0836,-0.0843,-0.088,-0.0932,-0.0851,-0.0852,-0.0839,-0.1,-0.0928,-0.0931,-0.0942,-0.0945,-0.0948,-0.0946,0,-0.0475,-0.0422,-0.0369,-0.0376,-0.0386,-0.0429,-0.0502,-0.0589,-0.0654,-0.0738,-0.0798,-0.087,-0.0855,-0.0886,-0.0929,-0.0935,-0.0967,-0.093,-0.0954,-0.0954,-0.0881,-0.0945,-0.0957,-0.0953,-0.0956,-0.0957,-0.0959,0,-0.0503,-0.0444,-0.0459,-0.0393,-0.0411,-0.0428,-0.0557,-0.0632,-0.0768,-0.0825,-0.0921,-0.0956,-0.1045,-0.1011,-0.1078,-0.1051,-0.1042,-0.1031,-0.1031,-0.0969,-0.0903,-0.0898,-0.0977,-0.0976,-0.0974,-0.0973,-0.0972,0,-0.0587,-0.0495,-0.0502,-0.0503,-0.0488,-0.0493,-0.0526,-0.0664,-0.0755,-0.09,-0.0959,-0.1063,-0.1114,-0.1144,-0.1133,-0.1113,-0.1172,-0.1144,-0.1068,-0.106,-0.1107,-0.1097,-0.1204,-0.1204,-0.1204,-0.1204,-0.1204,0,-0.0604,-0.0575,-0.0518,-0.0512,-0.0555,-0.0541,-0.0618,-0.0695,-0.0813,-0.0911,-0.1014,-0.1073,-0.1151,-0.1182,-0.1168,-0.1148,-0.1212,-0.1097,-0.1077,-0.1113,-0.1104,-0.1111,-0.1101,-0.1204,-0.1204,-0.1204,-0.1204,0,-0.0637,-0.0616,-0.059,-0.0559,-0.0577,-0.0619,-0.0654,-0.0704,-0.083,-0.0953,-0.1003,-0.1113,-0.1149,-0.1189,-0.1221,-0.1181,-0.1175,-0.1149,-0.1164,-0.114,-0.1009,-0.1,-0.1069,-0.1066,-0.1065,-0.1063,-0.1062,0,-0.0616,-0.0625,-0.0658,-0.0663,-0.0608,-0.0653,-0.0698,-0.0775,-0.0799,-0.0944,-0.097,-0.1064,-0.1115,-0.1122,-0.1155,-0.1154,-0.1137,-0.1116,-0.1093,-0.1033,-0.1007,-0.1001,-0.0994,-0.1059,-0.1059,-0.1058,-0.1058,0,-0.056,-0.0611,-0.0603,-0.0657,-0.0659,-0.0683,-0.0676,-0.0727,-0.0809,-0.0913,-0.0957,-0.1003,-0.104,-0.1075,-0.1096,-0.1081,-0.1128,-0.1098,-0.11,-0.1078,-0.1022,-0.0997,-0.0992,-0.1052,-0.1053,-0.1053,-0.1054,0,-0.0526,-0.0541,-0.0569,-0.0603,-0.0631,-0.063,-0.0666,-0.0638,-0.0721,-0.0848,-0.0848,-0.0946,-0.1022,-0.1033,-0.1036,-0.1045,-0.1021,-0.098,-0.0988,-0.0995,-0.0974,-0.0892,-0.0887,0,0,0,0,0,-0.0477,-0.0483,-0.0489,-0.0512,-0.0527,-0.0547,-0.0601,-0.0626,-0.0722,-0.0748,-0.0801,-0.0837,-0.0891,-0.0932,-0.0925,-0.0968,-0.1002,-0.0952,-0.0953,-0.1018,-0.1025,-0.1007,0,0,0,0,0,0,-0.0438,-0.0443,-0.0464,-0.0408,-0.0412,-0.0415,-0.0465,-0.0536,-0.0535,-0.0656,-0.0698,-0.0774,-0.084,-0.0894,-0.0907,-0.0916,-0.0896,-0.1008,-0.1006,-0.1014,-0.1021,-0.1026,-0.101,0,0,0,0,0]},{"header":{"parameterUnit":"m.s-1","parameterCategory":2,"la1":30.2991,"la2":30.254,"lo1":-89.0895,"lo2":-89.0444,"dy":0.0017,"dx":0.0017,"nx":28,"ny":28,"refTime":"2024-05-30T21:00:00:Z","depth":"4","parameterNumber":3,"parameterNumberName":"V-component_of_CURRENTS"},"data":[0,0,0,0,0,0,0,0,0,0,0,0,0,0,0,0,0,0,0,0,0,0,0,0,0,0,0,0,0,0,0,0,0,0,0,0,0,0,0,0,0,0,0,0,0,0,0,0,0,0,0,0,0,0,0,0,0,0,-0.0238,-0.0238,0,-0.0311,-0.0312,-0.0313,-0.0338,-0.0337,-0.0337,-0.0337,-0.0314,-0.0314,-0.0314,0,0,0,0,0,0,0,0,0,0,0,0,0,-0.0164,-0.0165,-0.0238,-0.0238,-0.0239,-0.0311,-0.0312,-0.0313,-0.0338,-0.0337,-0.0337,-0.0336,-0.0314,-0.0314,-0.0314,0,0,0,0,0,0,0,0,0,0,0,0,0,-0.0214,-0.0165,-0.0237,-0.0259,-0.0261,-0.0311,-0.0312,-0.0314,-0.0338,-0.0337,-0.0337,-0.0336,-0.0314,-0.0314,-0.0314,-0.0327,0,0,-0.0313,-0.0313,0,0,0,0,0,0,0,0,-0.0211,-0.0217,-0.0255,-0.0257,-0.026,-0.0313,-0.0278,-0.0313,-0.0338,-0.0311,-0.0336,-0.0336,-0.0304,-0.0305,-0.0324,-0.0326,-0.0325,-0.0313,-0.0313,-0.0313,-0.0313,0,0,0,0,0,0,0,-0.0207,-0.0214,-0.0269,-0.0255,-0.0259,-0.028,-0.0286,-0.0285,-0.031,-0.0313,-0.0315,-0.032,-0.0305,-0.0325,-0.0324,-0.0325,-0.0313,-0.0313,-0.0313,-0.0313,-0.0287,-0.0287,0,0,0,0,0,0,-0.0193,-0.0211,-0.0266,-0.0271,-0.0231,-0.0281,-0.0288,-0.0298,-0.0313,-0.0314,-0.0321,-0.0321,-0.0325,-0.0324,-0.0323,-0.0297,-0.0313,-0.0313,-0.0313,-0.0288,-0.0287,-0.0287,0,0,0,0,0,0,-0.0191,-0.0198,-0.0263,-0.024,-0.025,-0.0283,-0.0294,-0.03,-0.032,-0.0319,-0.0319,-0.0334,-0.0325,-0.0323,-0.0324,-0.0298,-0.0313,-0.0312,-0.0289,-0.0288,-0.0287,-0.0272,0,0,0,0,0,0,-0.0189,-0.0197,-0.0202,-0.024,-0.0251,-0.0299,-0.0295,-0.0302,-0.0324,-0.0325,-0.033,-0.0328,-0.0324,-0.0324,-0.0324,-0.0298,-0.0312,-0.0289,-0.0288,-0.0287,-0.0274,-0.0271,-0.0269,0,0,0,0,0,-0.0186,-0.0203,-0.0202,-0.0209,-0.0256,-0.03,-0.0308,-0.033,-0.0325,-0.0343,-0.0339,-0.0328,-0.0316,-0.0325,-0.0324,-0.0297,-0.029,-0.0288,-0.0287,-0.0275,-0.0272,-0.0269,0,0,0,0,0,0,-0.0181,-0.0208,-0.0208,-0.0233,-0.0262,-0.0303,-0.0325,-0.0332,-0.0348,-0.0344,-0.0336,-0.0334,-0.0322,-0.0317,-0.0326,-0.0286,-0.0295,-0.0293,-0.0285,-0.0283,-0.028,-0.0275,-0.0312,0,0,0,0,0,-0.0179,-0.0189,-0.0224,-0.0241,-0.0261,-0.029,-0.031,-0.0324,-0.0341,-0.0349,-0.0343,-0.033,-0.0318,-0.0307,-0.0304,-0.0291,-0.0289,-0.0268,-0.0266,-0.0264,-0.0259,-0.0227,-0.0221,-0.0283,-0.0283,-0.0283,0,0,-0.0179,-0.0194,-0.02,-0.0238,-0.0266,-0.0306,-0.0302,-0.0337,-0.0353,-0.0341,-0.0352,-0.0331,-0.0316,-0.03,-0.0291,-0.0289,-0.0252,-0.0262,-0.0261,-0.0257,-0.0225,-0.0218,-0.0213,-0.0282,-0.0282,-0.0282,0,0,-0.0198,-0.0204,-0.023,-0.0259,-0.0297,-0.0316,-0.0324,-0.036,-0.036,-0.0367,-0.0352,-0.0319,-0.0311,-0.0286,-0.0273,-0.0257,-0.0248,-0.0245,-0.0221,-0.019,-0.0184,-0.0179,-0.02,-0.0197,-0.0235,-0.0235,-0.0235,0,-0.0198,-0.0239,-0.0245,-0.0287,-0.0315,-0.0321,-0.0368,-0.0372,-0.0393,-0.0382,-0.0367,-0.032,-0.0302,-0.0267,-0.0248,-0.025,-0.0247,-0.0233,-0.0186,-0.0181,-0.0176,-0.0198,-0.0195,-0.0234,-0.0234,-0.0234,-0.0234,0,-0.0244,-0.0283,-0.0306,-0.0351,-0.0377,-0.042,-0.0431,-0.0433,-0.0416,-0.0405,-0.0362,-0.0323,-0.0283,-0.0263,-0.0246,-0.0192,-0.0209,-0.0195,-0.0193,-0.0169,-0.0195,-0.0192,-0.0233,-0.0233,-0.0233,-0.0234,0,0,-0.0245,-0.0323,-0.0336,-0.0375,-0.0419,-0.0451,-0.0461,-0.0474,-0.0469,-0.0427,-0.0401,-0.0335,-0.0278,-0.0258,-0.0216,-0.0173,-0.0136,-0.0157,-0.0156,-0.0179,-0.0099,-0.006,-0.0054,-0.0105,-0.0103,-0.0102,-0.0142,0,-0.029,-0.0364,-0.0399,-0.048,-0.0522,-0.0535,-0.0544,-0.0538,-0.0508,-0.0475,-0.0389,-0.0341,-0.0286,-0.024,-0.0187,-0.0148,-0.0122,-0.0129,-0.0117,-0.0118,-0.0085,-0.0045,-0.0098,-0.014,-0.0139,-0.0139,-0.0138,0,-0.0341,-0.0377,-0.0455,-0.0535,-0.0559,-0.0596,-0.0607,-0.0621,-0.0563,-0.0527,-0.044,-0.0366,-0.0272,-0.0229,-0.0142,-0.0145,-0.0116,-0.0092,-0.0093,-0.0054,-0.007,-0.016,-0.0133,-0.0133,-0.0133,-0.0134,-0.0134,0,-0.033,-0.0436,-0.0491,-0.0521,-0.0592,-0.0618,-0.0646,-0.0619,-0.0612,-0.0536,-0.049,-0.0386,-0.0311,-0.0242,-0.0138,-0.014,-0.0064,-0.0072,-0.0028,-0.0028,-0.0062,-0.0067,-0.0025,-0.0025,-0.0024,-0.0024,-0.0024,0,-0.0371,-0.0429,-0.049,-0.0524,-0.0579,-0.0623,-0.0652,-0.0656,-0.0623,-0.0588,-0.0496,-0.0419,-0.0299,-0.0217,-0.0156,-0.0066,-0.0075,-0.0016,-0.0015,-0.0062,-0.0065,-0.0063,-0.0066,-0.0026,-0.0026,-0.0025,-0.0025,0,-0.038,-0.0419,-0.0491,-0.0561,-0.0579,-0.0614,-0.0665,-0.0668,-0.0641,-0.0586,-0.0544,-0.0438,-0.0324,-0.0228,-0.0131,-0.0084,-0.0014,0.001,-0.0069,-0.0076,-0.0016,-0.0019,0.003,0.0032,0.0033,0.0034,0.0035,0,-0.0399,-0.0427,-0.0502,-0.0528,-0.0572,-0.0617,-0.0632,-0.0652,-0.0637,-0.0577,-0.0533,-0.0418,-0.0325,-0.0179,-0.0096,-0.0006,0.0019,0.002,0.0035,0.0004,-0.0001,-0.0006,-0.0011,0.0037,0.0037,0.0038,0.0038,0,-0.0429,-0.0448,-0.0504,-0.0531,-0.0566,-0.0605,-0.0625,-0.0603,-0.0595,-0.058,-0.0473,-0.037,-0.026,-0.015,-0.0068,-0.0001,0.0008,0.0033,0.003,0.0044,0.0013,0.0005,-0.0001,0.0042,0.0042,0.0041,0.0041,0,-0.0445,-0.0477,-0.0518,-0.0555,-0.0582,-0.0572,-0.0589,-0.056,-0.0544,-0.0472,-0.0438,-0.0322,-0.0267,-0.0148,-0.0069,0.0009,0.0014,0.0018,0.0016,0.0012,0.0041,0.0,0.0039,0,0,0,0,0,-0.0455,-0.0487,-0.0531,-0.0551,-0.0573,-0.0581,-0.0578,-0.0578,-0.0546,-0.0462,-0.0448,-0.0332,-0.0193,-0.0143,-0.0056,-0.0063,0.0013,0.0037,0.0013,0.0067,0.0062,0.0107,0,0,0,0,0,0,-0.0459,-0.0505,-0.0531,-0.0536,-0.0543,-0.0547,-0.054,-0.0519,-0.0468,-0.0432,-0.0354,-0.0327,-0.0194,-0.0237,-0.0059,-0.0039,-0.0045,0.0093,0.0094,0.007,0.0065,0.0061,0.0106,0,0,0,0,0]}]]